Palma de Mallorca, Spain

11:49 AM CEST on June 26, 2017 (GMT +0200)
Palma De Mallorca

Weather History for LEPA - December, 2013

Change the Weather History Date:

Monday, December 23, 2013

  Actual Average Record
Temperature  
Mean Temperature 51 °F -  
Max Temperature 61 °F 57 °F 65 °F (2015)
Min Temperature 41 °F 39 °F 28 °F (2005)
Degree Days  
Heating Degree Days 14    
Growing Degree Days 1 (Base 50)    
Moisture  
Dew Point 49 °F    
Average Humidity 88    
Maximum Humidity 100    
Minimum Humidity 67    
Precipitation  
Precipitation 0.00 in 0.05 in - ()
Sea Level Pressure  
Sea Level Pressure 30.31 in    
Wind  
Wind Speed 3 mph ()    
Max Wind Speed 14 mph    
Max Gust Speed -    
Visibility 6.4 miles    
Events Fog    
Averages and records for this station are not official NWS values.
T = Trace of Precipitation, MM = Missing Value Source: Averaged Metar Reports

Daily Weather History Graph

Daily Weather History Graph

Search for Another Location

Airport or City:

Trip Planner

Search our weather history database for the weather conditions in past years. The results will help you decide how hot, cold, wet, or windy it might be!

Date:

Astronomy

Dec. 23, 2013 Rise Set
Actual Time 8:06 AM CET 5:29 PM CET
Civil Twilight 7:36 AM CET 5:59 PM CET
Nautical Twilight 7:02 AM CET 6:33 PM CET
Astronomical Twilight 6:30 AM CET 7:06 PM CET
Moon 11:23 PM CET (12/23) 11:26 AM CET (12/23)
Length of Visible Light 10h 23m
Length of Day
9h 22m
Waning Gibbous, 70% of the Moon is Illuminated
Dec 23
Waning Gibbous
Dec 25
Last Quarter
Jan 1
New
Jan 8
First Quarter
Jan 16
Full

Hourly Weather History & Observations

Time (CET) Temp. Dew Point Humidity Pressure Visibility Wind Dir Wind Speed Gust Speed Precip Events Conditions
12:00 AM 48 °F 47 °F 97% 30.41 in - Calm Calm - -  
12:00 AM 48.2 °F 48.2 °F 100% 30.39 in 6.2 mi Calm Calm - N/A   Scattered Clouds
12:30 AM 48.2 °F 48.2 °F 100% 30.39 in 6.2 mi Calm Calm - N/A   Scattered Clouds
1:00 AM 48.2 °F 48.2 °F 100% 30.39 in 6.2 mi Calm Calm - N/A   Scattered Clouds
1:30 AM 46.4 °F 46.4 °F 100% 30.36 in 5.6 mi Calm Calm - N/A   Scattered Clouds
2:00 AM 47 °F 46 °F 96% 30.38 in - Calm Calm - -  
2:00 AM 46.4 °F 46.4 °F 100% 30.36 in 5.6 mi North 1.2 mph - N/A   Scattered Clouds
2:30 AM 46.4 °F 46.4 °F 100% 30.36 in 5.6 mi Calm Calm - N/A   Partly Cloudy
3:00 AM 44 °F 44 °F 98% 30.37 in - East 2.3 mph - -  
3:00 AM 44.6 °F 44.6 °F 100% 30.36 in 5.0 mi Calm Calm - N/A   Partly Cloudy
3:30 AM 44.6 °F 42.8 °F 93% 30.36 in 5.0 mi NNE 2.3 mph - N/A   Partly Cloudy
4:00 AM 43 °F 43 °F 99% 30.37 in 7 mi Calm Calm - -   Scattered Clouds
4:00 AM 42.8 °F 42.8 °F 100% 30.36 in 5.0 mi Calm Calm - N/A   Partly Cloudy
4:30 AM 42.8 °F 42.8 °F 100% 30.36 in 5.0 mi Calm Calm - N/A   Partly Cloudy
5:00 AM 44 °F 44 °F 97% 30.36 in - ESE 1.2 mph - -  
5:00 AM 44.6 °F 44.6 °F 100% 30.36 in 5.0 mi Calm Calm - N/A   Partly Cloudy
5:30 AM 41.0 °F 41.0 °F 100% 30.33 in 5.0 mi Calm Calm - N/A   Partly Cloudy
6:00 AM 43 °F 43 °F 98% 30.35 in - Calm Calm - -  
6:00 AM 42.8 °F 42.8 °F 100% 30.33 in 5.0 mi Variable 1.2 mph - N/A   Partly Cloudy
6:30 AM 41.0 °F 41.0 °F 100% 30.33 in 5.0 mi NNE 2.3 mph - N/A Fog Shallow Fog
7:00 AM 43 °F 43 °F 100% 30.35 in 7 mi Calm Calm - -  
7:00 AM 42.8 °F 42.8 °F 100% 30.33 in 6.2 mi Calm Calm - N/A   Scattered Clouds
7:30 AM 42.8 °F 42.8 °F 100% 30.33 in 6.2 mi North 1.2 mph - N/A   Scattered Clouds
8:00 AM 43 °F 43 °F 100% 30.36 in - Calm Calm - -  
8:00 AM 42.8 °F 42.8 °F 100% 30.33 in 6.2 mi Variable 1.2 mph - N/A Fog Shallow Fog
8:30 AM 42.8 °F 42.8 °F 100% 30.33 in 6.2 mi Calm Calm - N/A Fog Shallow Fog
9:00 AM 45 °F 44 °F 96% 30.36 in - Calm Calm - -  
9:00 AM 44.6 °F 44.6 °F 100% 30.33 in 6.2 mi Variable 1.2 mph - N/A Fog Shallow Fog
9:30 AM 46.4 °F 46.4 °F 100% 30.36 in 6.2 mi Calm Calm - N/A Fog Patches of Fog
10:00 AM 51 °F 49 °F 91% 30.37 in 2 mi Calm Calm - -   Mist
10:00 AM 50.0 °F 50.0 °F 100% 30.36 in 6.2 mi Calm Calm - N/A Fog Patches of Fog
10:30 AM 51.8 °F 50.0 °F 94% 30.36 in 6.2 mi Calm Calm - N/A   Partly Cloudy
11:00 AM 56 °F 52 °F 82% 30.36 in - Calm Calm - -  
11:00 AM 55.4 °F 53.6 °F 94% 30.36 in 6.2 mi Calm Calm - N/A   Partly Cloudy
11:30 AM 57.2 °F 53.6 °F 88% 30.36 in 6.2 mi Calm Calm - N/A   Partly Cloudy
12:00 PM 59 °F 53 °F 73% 30.35 in - Calm Calm - -  
12:00 PM 59.0 °F 51.8 °F 77% 30.33 in 6.2 mi Calm Calm - N/A   Partly Cloudy
12:30 PM 60.8 °F 53.6 °F 77% 30.33 in 6.2 mi WSW 3.5 mph - N/A   Partly Cloudy
1:00 PM 61 °F 54 °F 70% 30.32 in 16 mi SW 8.1 mph - -   Partly Cloudy
1:00 PM 59.0 °F 53.6 °F 82% 30.30 in 6.2 mi SW 5.8 mph - N/A   Partly Cloudy
1:30 PM 59.0 °F 53.6 °F 82% 30.30 in 6.2 mi WSW 6.9 mph - N/A   Partly Cloudy
2:00 PM 60 °F 53 °F 72% 30.30 in - SW 9.2 mph - -  
2:00 PM 59.0 °F 53.6 °F 82% 30.30 in 6.2 mi SW 8.1 mph - N/A   Partly Cloudy
2:30 PM 59.0 °F 53.6 °F 82% 30.27 in 6.2 mi SW 6.9 mph - N/A   Scattered Clouds
3:00 PM 60 °F 54 °F 74% 30.28 in - SW 9.2 mph - -  
3:00 PM 59.0 °F 53.6 °F 82% 30.27 in 6.2 mi SW 6.9 mph - N/A   Scattered Clouds
3:30 PM 59.0 °F 53.6 °F 82% 30.27 in 6.2 mi WSW 9.2 mph - N/A   Scattered Clouds
4:00 PM 60 °F 52 °F 67% 30.28 in 12 mi WSW 11.5 mph - -   Partly Cloudy
4:00 PM 59.0 °F 51.8 °F 77% 30.27 in 6.2 mi SW 9.2 mph - N/A   Scattered Clouds
4:30 PM 59.0 °F 51.8 °F 77% 30.27 in 6.2 mi WSW 8.1 mph - N/A   Scattered Clouds
5:00 PM 58 °F 52 °F 73% 30.27 in - WSW 9.2 mph - -  
5:00 PM 57.2 °F 51.8 °F 82% 30.27 in 6.2 mi WSW 6.9 mph - N/A   Scattered Clouds
5:30 PM 57.2 °F 51.8 °F 82% 30.24 in 6.2 mi SW 4.6 mph - N/A   Partly Cloudy
6:00 PM 57 °F 51 °F 75% 30.25 in - SW 8.1 mph - -  
6:00 PM 57.2 °F 51.8 °F 82% 30.24 in 6.2 mi SW 5.8 mph - N/A   Scattered Clouds
6:30 PM 57.2 °F 51.8 °F 82% 30.24 in 6.2 mi SW 5.8 mph - N/A   Scattered Clouds
7:00 PM 57 °F 51 °F 76% 30.25 in 12 mi SW 9.2 mph - -   Partly Cloudy
7:00 PM 57.2 °F 51.8 °F 82% 30.24 in 6.2 mi SW 6.9 mph - N/A   Scattered Clouds
7:30 PM 57.2 °F 51.8 °F 82% 30.24 in 6.2 mi SW 6.9 mph - N/A   Scattered Clouds
8:00 PM 57 °F 52 °F 77% 30.24 in - SW 11.5 mph - -  
8:00 PM 57.2 °F 51.8 °F 82% 30.24 in 6.2 mi SW 8.1 mph - N/A   Scattered Clouds
8:30 PM 57.2 °F 51.8 °F 82% 30.24 in 6.2 mi SW 9.2 mph - N/A   Scattered Clouds
9:00 PM 58 °F 52 °F 75% 30.24 in - SW 13.8 mph - -  
9:00 PM 57.2 °F 51.8 °F 82% 30.24 in 6.2 mi SW 8.1 mph - N/A   Mostly Cloudy
9:30 PM 57.2 °F 51.8 °F 82% 30.21 in 6.2 mi SW 10.4 mph - N/A   Scattered Clouds
10:00 PM 57 °F 52 °F 79% 30.23 in 11 mi SW 13.8 mph - -   Mostly Cloudy
10:00 PM 57.2 °F 51.8 °F 82% 30.21 in 6.2 mi SW 11.5 mph - N/A   Scattered Clouds
10:30 PM 57.2 °F 51.8 °F 82% 30.21 in 6.2 mi SW 12.7 mph - N/A   Scattered Clouds
11:00 PM 57 °F 51 °F 75% 30.23 in - WSW 13.8 mph - -  
11:00 PM 57.2 °F 51.8 °F 82% 30.21 in 6.2 mi SW 11.5 mph - N/A   Scattered Clouds
11:30 PM 57.2 °F 51.8 °F 82% 30.21 in 6.2 mi SW 9.2 mph - N/A   Scattered Clouds